Regional Weather Roundup
Issued by NWS

Home | Current Version | Previous Version | Text Only | Print | Product List | Glossary On
Versions: 1 2 3 4 5 6 7 8 9 10 11 12 13 14 15 16 17 18 19 20 21 22 23 24 25 26 27
000
ASUS45 KREV 041010
RWRNV
NEVADA REGIONAL WEATHER ROUNDUP
NATIONAL WEATHER SERVICE RENO NV
300 AM PDT WED MAY 04 2016

NOTE: "FAIR" INDICATES FEW OR NO CLOUDS BELOW 12,000 FEET WITH NO
SIGNIFICANT WEATHER AND/OR OBSTRUCTIONS TO VISIBILITY.

NVZ001-003-004-041100-
WESTERN NEVADA

CITY           SKY/WX    TMP DP  RH WIND       PRES   REMARKS
RENO           PTCLDY    53  38  56 W7        30.03F
CARSON CITY    FAIR      48  39  71 CALM      30.04F
MINDEN         FAIR      41  39  93 E5        30.04F
SLIDE MTN        N/A     39  27  60 S14         N/A
FALLON         MOCLDY    51  34  52 S7        29.99S
LOVELOCK       MOCLDY    50  27  40 CALM      29.97F
$$

NVZ002-CAZ072-073-041100-
NORTHERN AND CENTRAL SIERRA

CITY           SKY/WX    TMP DP  RH WIND       PRES   REMARKS
S. LAKE TAHOE  PTCLDY    37  35  92 CALM      30.09F
TRUCKEE        FOG       34  34 100 CALM      30.10S VSB 1/2
SQUAW VLY 8000   N/A     41  28  60 SW8         N/A
BLUE CANYON    PTCLDY    54  29  38 NE3       30.04F
MAMMOTH LAKES  FAIR      39  32  76 NW3       30.14F
BRIDGEPORT     FAIR      37  31  78 CALM      30.10F
$$

NVZ030-031-036-041100-
NORTHERN NEVADA

CITY           SKY/WX    TMP DP  RH WIND       PRES   REMARKS
ELKO           CLOUDY    51  36  56 E6        30.11S
WINNEMUCCA     CLOUDY    50  37  61 E8        30.01F
WENDOVER       PTCLDY    52  37  58 CALM      30.13F
$$

NVZ035-037-041100-
CENTRAL NEVADA

CITY           SKY/WX    TMP DP  RH WIND       PRES   REMARKS
ELY            CLOUDY    42  34  73 E3        30.19F
EUREKA           N/A     44  32  62 S6        30.14S
$$

NVZ013-014-041100-
SOUTH CENTRAL NEVADA

CITY           SKY/WX    TMP DP  RH WIND       PRES   REMARKS
TONOPAH        MOCLDY    47  28  47 N9        30.10F
$$

NVZ017-020-022-041100-
SOUTHERN NEVADA

CITY           SKY/WX    TMP DP  RH WIND       PRES   REMARKS
LAS VEGAS      CLEAR     68  39  34 W5        29.91F
N. LAS VEGAS   CLEAR     68  39  34 W5        29.95S
NELLIS AFB     CLEAR     65  41  42 N3        29.93F
HENDERSON      CLEAR     62  43  49 S6        29.98S
MERCURY        CLEAR     56  40  55 CALM      29.99F
$$




USA.gov is the U.S. government's official web portal to all federal, state and local government web resources and services.